Temperature
14 14 15 15 18 19 20 20 20 20 20 19 19 20 21 22 22 21 17 17 16 16 16 16 16 16 16 16 16 16 16 16 16 16 16 16 16 16 16 16 15 15 15 15 15 15 15 15 15
13 14 14 16 18 19 20 20 20 20 19 18 18 19 20 20 18 17 16 16 16 16 16 16 16 16 16 16 16 16 16 16 16 16 16 15 15 16 16 15 15 15 15 15 15 15 15 15 15
13 14 15 17 18 19 20 19 19 19 17 18 18 18 19 18 16 16 16 16 16 15 15 15 15 15 15 16 16 15 16 16 15 16 15 15 15 15 15 15 15 15 15 15 15 15 15 15 15
13 13 15 17 17 18 19 19 18 18 17 17 18 18 17 15 15 15 16 16 15 15 15 15 15 15 15 15 15 15 15 15 15 15 15 15 15 15 15 15 15 15 15 15 15 15 15 15 14
12 14 16 16 17 17 18 17 17 18 18 17 17 18 17 14 15 15 15 15 15 15 15 15 15 15 15 15 15 15 15 15 15 15 15 15 15 15 15 15 15 15 15 15 15 15 14 14 14
13 15 16 16 17 17 17 16 16 18 18 17 17 18 17 14 15 15 15 14 14 14 14 14 15 15 15 15 15 15 15 15 15 15 15 15 15 15 15 15 15 15 15 15 14 14 14 14 14
13 14 15 16 16 16 16 15 16 17 17 16 16 17 16 14 14 14 14 14 14 14 14 14 14 14 14 14 14 15 15 15 15 15 15 15 15 15 15 15 14 14 14 14 14 14 14 14 14
12 13 14 15 15 16 15 14 14 15 16 14 14 16 16 13 13 13 13 13 13 13 14 14 14 14 14 14 14 14 14 14 14 15 15 15 15 14 14 14 14 14 14 14 14 14 14 14 13
11 13 14 14 14 15 14 14 14 13 14 13 13 13 13 12 13 13 13 13 13 13 13 13 13 13 13 14 14 14 14 14 14 14 14 14 14 14 14 14 14 14 14 14 13 13 13 13 13
11 12 13 13 13 13 13 13 13 13 14 13 13 12 12 12 12 12 12 12 13 13 13 13 13 13 13 13 13 13 13 13 13 14 14 14 14 14 14 14 14 13 13 13 13 13 13 13 12
11 12 12 11 11 11 12 12 11 13 14 13 12 11 11 11 12 12 12 12 12 12 12 13 13 13 13 13 13 13 13 13 13 13 13 13 13 13 13 13 13 13 13 13 13 13 12 12 12
10 10 10 10 10 10 11 11 11 11 11 10 10 10 10 11 11 11 12 12 12 12 12 12 13 13 13 13 13 13 13 13 13 13 13 13 13 13 13 13 13 12 12 12 12 12 12 12 12
10 10 9 9 9 9 10 10 10 10 9 9 9 10 10 10 10 11 11 11 11 12 12 12 12 12 12 12 12 12 12 13 13 13 13 13 13 13 13 13 13 12 12 12 12 12 12 12 11
9 9 9 9 9 9 10 10 10 10 9 9 9 10 10 10 10 10 11 11 11 11 12 12 12 12 12 12 12 12 12 12 13 13 13 13 12 13 12 12 12 12 12 12 12 11 11 11 11
8 9 9 9 9 9 10 10 10 10 9 9 9 9 9 9 9 10 10 10 10 11 11 11 11 11 12 12 12 12 12 12 12 12 12 12 12 12 12 12 12 12 12 11 11 11 11 11 11
9 10 10 10 10 9 10 11 11 9 9 9 9 9 9 9 9 9 9 10 10 10 10 11 11 11 11 11 11 11 11 12 12 12 12 12 12 12 12 12 12 12 11 11 11 11 11 11 10
10 10 10 10 10 10 10 10 10 9 9 9 9 9 8 8 8 8 9 9 9 10 10 10 11 11 11 11 11 11 11 11 11 11 11 11 11 11 11 11 11 11 11 11 11 10 10 10 10
10 10 10 10 10 9 9 10 10 9 9 9 9 9 8 8 8 8 8 9 9 10 10 10 10 10 11 11 11 11 11 11 11 11 11 11 11 11 11 11 11 11 11 10 10 10 10 10 10
9 9 9 9 9 9 9 9 10 9 9 9 9 8 8 8 8 8 8 8 9 9 9 10 10 10 10 10 10 10 10 10 10 10 10 11 11 11 11 11 10 10 10 10 10 10 10 10 9
8 8 9 9 9 8 9 9 9 9 9 8 8 8 8 7 7 7 8 8 8 8 9 9 9 9 10 10 10 10 10 10 10 10 10 10 10 10 10 10 10 10 10 10 10 9 9 9 9
8 8 8 8 8 8 8 10 10 9 8 8 7 7 7 7 7 7 7 7 7 8 8 9 9 9 9 9 9 9 9 9 9 9 10 9 10 9 10 10 10 10 10 9 9 9 9 9 9
8 7 7 7 8 9 8 10 10 10 9 8 7 7 7 6 6 6 6 7 7 7 8 8 8 8 9 9 9 9 9 9 9 9 9 9 9 9 9 9 9 9 9 9 9 9 9 8 8
7 7 7 7 7 7 8 8 10 9 9 9 8 7 6 6 6 6 6 6 7 7 7 7 8 8 8 8 8 8 8 8 8 8 8 9 9 9 9 9 9 9 9 9 9 8 8 8 8
6 6 7 7 7 7 8 8 10 10 9 9 8 7 6 6 5 5 6 6 6 6 7 7 7 7 7 8 8 8 8 8 8 8 8 8 8 8 8 8 8 8 8 8 8 8 8 7 7
6 7 8 8 8 9 8 8 9 9 8 8 7 6 6 5 5 5 5 5 5 6 6 6 7 7 7 7 7 7 7 7 7 7 8 8 8 8 8 8 8 8 7 8 8 7 7 7 7
6 6 8 8 9 10 8 8 10 7 6 6 6 5 5 5 5 5 5 5 5 5 6 6 6 6 6 6 7 7 7 7 7 7 7 7 7 7 7 7 7 7 7 7 7 7 7 7 6
6 6 6 7 6 7 9 8 8 7 6 5 5 5 5 4 4 5 5 5 5 5 5 5 6 6 6 6 6 6 6 6 6 6 6 6 6 7 7 7 6 7 6 6 6 6 6 6 6
5 6 6 6 7 8 9 9 9 7 6 6 5 5 4 4 4 4 4 4 5 5 5 5 5 5 5 5 5 6 6 6 6 6 6 6 6 6 6 6 6 6 6 6 6 6 6 5 5
5 4 5 6 6 8 9 10 8 7 6 6 5 4 3 3 3 3 4 4 4 4 4 4 5 5 4 5 5 5 5 5 5 5 5 5 5 5 6 6 5 5 5 5 5 5 5 5 5
5 5 5 6 5 5 7 8 6 6 5 4 4 3 2 2 2 3 3 3 4 4 4 4 4 4 4 4 4 4 4 4 4 4 4 5 5 5 5 5 5 5 5 5 5 5 4 4 4
Wind_Speed
8 5 2 2 4 6 11 8 6 5 5 3 2 3 4 4 3 0 3 5 7 10 12 14 12 12 12 12 12 12 12 12 12 12 12 12 13 13 13 13 12 12 13 13 13 13 14 14 14
6 3 2 3 7 10 10 9 8 6 2 2 2 3 3 3 1 1 2 5 8 11 12 13 13 12 12 12 12 12 12 12 12 12 12 12 13 13 13 13 12 12 12 12 13 13 13 13 13
3 2 2 3 7 11 9 6 5 3 3 3 3 2 2 1 1 0 1 6 8 10 12 13 14 13 13 13 12 12 12 11 11 12 11 11 12 12 12 12 12 12 12 12 13 13 12 12 12
1 2 2 6 11 9 7 4 3 4 3 3 3 2 1 1 2 1 2 7 9 10 11 13 13 13 13 12 12 12 11 11 11 11 11 11 11 12 12 12 12 12 12 12 12 12 11 11 11
1 2 5 8 11 8 5 4 3 5 4 3 4 3 2 1 4 2 3 7 9 10 11 13 13 13 13 12 12 11 11 10 10 10 10 10 10 11 12 12 13 13 13 12 12 11 10 11 11
2 3 6 11 11 8 7 5 5 6 5 3 3 4 2 2 3 3 2 5 7 8 9 11 13 13 12 12 11 11 10 10 10 9 9 10 10 11 11 12 12 12 12 12 12 11 11 10 10
2 3 8 10 9 8 6 4 6 6 6 4 2 4 3 1 2 1 3 5 5 6 7 9 10 11 11 11 11 11 10 10 9 9 8 9 10 10 11 11 11 11 11 11 11 10 10 10 9
1 2 6 8 9 8 4 3 3 5 5 2 2 4 3 1 1 1 3 4 5 5 6 7 8 9 9 10 10 10 10 9 9 9 8 8 9 9 10 10 10 10 10 10 10 10 10 9 9
2 4 8 8 7 5 2 3 3 3 3 3 2 3 4 1 1 2 3 4 5 5 5 6 7 7 7 8 9 9 9 9 9 8 9 8 7 8 8 8 9 10 10 9 9 9 9 9 8
3 6 7 3 4 3 3 3 3 3 4 4 4 4 3 0 2 3 4 5 5 5 5 5 6 6 7 7 7 7 7 8 7 7 8 6 5 6 7 9 9 9 9 9 8 8 8 6 5
3 5 4 3 2 4 4 4 3 4 6 5 4 4 3 2 3 4 5 6 6 5 4 5 6 6 6 5 6 5 5 6 6 7 6 5 5 5 6 6 7 7 8 7 7 7 5 4 3
3 3 3 3 3 4 5 4 4 5 6 6 5 4 4 3 5 4 4 4 4 5 5 4 5 6 6 6 5 5 4 4 5 6 7 5 4 4 5 5 5 5 5 5 5 4 4 4 3
4 4 3 4 4 5 5 6 6 7 7 6 6 5 5 5 5 5 5 4 4 4 4 4 4 6 6 6 5 5 5 5 5 6 6 6 4 4 4 5 5 4 4 4 4 4 4 4 3
1 3 4 5 6 5 6 8 7 8 6 6 6 6 6 5 5 4 4 4 4 4 4 4 4 5 5 5 5 5 5 5 6 5 6 6 5 4 4 5 4 4 4 4 4 4 3 3 3
2 2 4 5 6 4 5 7 8 7 6 6 6 6 5 5 5 5 4 4 4 4 3 4 4 4 5 5 6 5 5 5 5 5 6 7 6 5 4 4 4 4 4 5 4 4 3 3 3
2 3 3 2 3 3 4 8 5 4 5 6 6 5 5 5 5 5 4 4 4 3 3 3 2 2 4 4 4 4 5 5 5 6 6 7 7 6 4 3 4 4 5 4 3 3 3 3 3
3 4 5 4 3 3 5 8 6 4 5 6 6 6 5 5 5 4 4 4 4 4 3 2 2 2 3 3 3 4 4 5 4 5 5 6 6 7 5 3 4 5 4 4 3 3 3 3 3
4 5 6 5 3 4 7 10 10 7 7 8 7 6 6 5 6 5 5 4 4 4 3 3 3 2 2 2 2 2 3 3 3 4 5 6 6 6 5 4 4 4 3 3 4 4 3 3 3
4 6 8 7 6 6 10 12 12 10 9 9 8 7 6 6 6 5 5 5 4 3 3 3 3 3 2 2 3 3 3 3 2 2 3 5 5 5 5 4 3 4 4 4 4 3 4 2 2
5 6 8 6 4 6 9 13 12 10 9 8 8 7 7 7 6 6 5 5 5 4 4 4 4 4 4 3 3 3 3 2 2 2 2 3 4 5 4 4 4 4 4 4 4 3 3 2 2
6 8 8 7 7 6 8 9 9 7 6 6 6 7 7 7 7 6 5 5 5 4 5 5 5 5 5 4 2 2 1 1 2 2 2 3 4 4 4 4 4 4 5 4 4 4 3 3 3
6 6 7 8 7 5 4 7 7 6 6 6 6 7 7 6 6 6 5 5 5 5 4 5 5 4 4 4 3 4 3 3 3 3 3 2 3 4 4 4 3 4 4 4 4 4 3 3 3
4 5 6 6 7 7 6 6 7 5 7 7 6 6 6 5 5 5 5 5 5 5 4 4 5 4 4 4 5 5 4 3 2 2 3 3 2 3 3 3 4 3 3 4 4 4 3 3 4
4 3 4 4 4 6 7 6 6 4 6 7 5 5 5 4 4 5 5 4 4 4 4 4 5 5 4 5 5 5 5 4 4 4 4 3 3 3 3 3 3 3 3 4 4 4 4 4 3
2 2 2 2 3 5 2 5 7 5 5 6 5 4 3 3 3 3 4 4 4 4 4 3 4 4 4 5 5 5 6 6 6 6 5 4 3 3 4 3 3 3 3 3 3 4 4 4 4
3 3 3 3 5 5 4 7 5 3 5 4 3 3 2 2 2 3 4 4 3 4 4 3 3 3 4 4 4 4 5 5 5 6 5 5 4 4 4 4 4 4 4 3 4 3 4 4 4
2 3 3 3 4 5 5 6 7 5 6 5 4 4 4 3 3 4 3 3 3 4 3 3 3 3 3 3 3 3 4 4 5 5 5 4 4 4 4 4 4 4 4 4 4 3 4 4 4
3 2 2 3 3 6 7 7 6 5 6 5 5 5 5 5 4 4 4 4 4 3 3 3 2 2 2 3 3 3 3 3 3 4 4 4 4 4 4 4 4 4 4 4 4 4 4 4 4
2 2 3 2 3 4 6 5 2 4 5 6 6 5 6 5 5 5 5 5 4 3 2 2 2 2 2 2 2 2 2 2 3 3 3 4 4 4 4 4 4 4 4 4 4 4 4 4 4
4 4 4 4 4 4 5 6 2 4 5 6 6 6 6 6 5 5 5 4 4 3 2 2 2 2 2 2 2 2 2 2 2 2 3 3 4 4 4 4 5 5 5 5 5 5 5 5 5
Wind_Direction
333 318 285 231 215 221 227 219 217 202 206 208 213 222 225 219 226 268 59 145 151 157 156 153 148 147 144 140 136 133 133 130 128 127 125 126 125 121 119 117 114 111 108 106 104 102 99 96 93
331 309 235 221 226 224 224 217 213 218 208 191 207 219 221 220 267 24 100 154 157 157 157 157 149 148 144 138 137 134 133 135 132 129 127 129 128 124 122 120 116 113 110 108 105 102 100 98 96
320 299 219 211 225 229 222 202 212 218 212 215 203 218 241 259 241 254 119 164 161 157 157 153 151 149 146 142 138 137 135 136 137 133 130 129 129 126 122 121 118 115 113 109 106 103 101 100 98
276 193 210 226 226 230 236 212 210 199 201 229 224 193 184 26 337 327 155 169 161 158 158 153 155 150 147 142 139 137 137 134 135 136 134 131 129 128 125 122 119 117 114 110 106 104 102 102 100
257 203 209 225 234 228 228 248 234 224 219 216 232 224 211 19 13 47 147 166 161 158 156 155 156 152 147 144 144 143 140 139 134 134 137 133 132 130 128 123 120 118 115 112 110 106 103 104 103
190 206 218 227 230 229 226 243 246 237 229 224 237 238 219 79 44 52 134 158 156 156 154 153 153 151 148 146 145 144 143 138 136 129 134 135 135 135 130 128 125 123 120 117 114 109 104 101 100
195 212 227 231 233 232 230 235 235 238 233 239 267 236 192 93 30 78 135 147 145 147 146 148 153 151 147 146 146 145 141 138 133 131 125 132 133 138 135 133 130 128 126 123 119 115 110 104 100
217 213 226 225 231 237 235 230 239 248 247 270 265 241 221 345 357 112 129 136 141 145 147 145 149 152 155 153 145 143 141 138 135 131 122 125 131 133 134 137 134 132 131 129 124 121 115 108 103
191 218 231 225 229 235 246 246 246 278 251 253 266 298 328 357 130 130 138 137 143 150 152 151 150 151 153 155 150 148 144 142 142 140 133 133 148 144 139 134 133 134 133 133 131 127 120 116 111
201 219 235 242 243 246 270 278 286 249 246 254 263 300 331 113 172 173 180 172 166 164 164 162 159 157 155 153 157 161 161 162 166 160 156 159 154 147 138 129 131 133 134 134 132 132 134 135 128
203 220 227 248 270 271 273 285 293 257 256 262 271 297 322 275 226 208 201 192 185 176 169 173 167 167 161 158 160 162 169 175 177 170 164 165 153 148 148 145 140 142 147 146 143 149 152 148 137
198 223 235 257 288 276 276 280 277 265 267 290 288 286 278 265 245 229 223 212 203 190 184 181 177 174 170 168 167 167 168 176 180 177 169 167 162 162 164 161 160 159 163 164 165 164 158 158 158
219 230 247 263 288 286 279 270 269 271 274 281 275 267 263 259 254 246 232 230 222 209 200 192 187 181 178 176 176 178 179 180 181 179 177 175 174 172 177 169 168 173 171 175 177 173 170 175 175
216 233 265 270 269 274 275 279 264 264 260 260 260 259 263 263 266 264 247 237 241 232 220 205 191 190 185 186 186 184 181 180 180 179 186 179 178 177 182 176 174 176 182 183 187 183 185 191 192
224 248 268 275 264 265 276 278 259 264 253 250 251 255 265 264 266 255 258 242 243 242 235 218 204 199 194 193 194 190 182 181 184 182 186 186 182 181 185 187 180 180 183 183 182 181 191 201 201
213 229 246 265 259 258 245 264 275 276 250 249 250 255 263 267 267 261 266 265 250 248 238 230 202 197 202 199 203 196 189 187 189 185 186 192 189 184 182 192 186 182 185 184 185 192 196 203 211
210 235 247 261 254 255 239 261 278 271 256 255 257 255 254 264 270 264 261 263 251 239 232 227 207 196 201 201 205 200 192 194 194 188 189 193 194 191 186 192 189 181 187 192 194 197 206 212 218
229 241 253 257 270 265 257 264 275 270 259 256 257 254 250 257 261 259 253 250 250 239 231 226 214 201 195 192 192 186 189 198 194 195 195 191 192 195 193 190 189 181 186 197 201 196 205 214 219
253 254 266 273 284 277 265 272 274 269 258 254 254 253 254 258 264 258 249 243 244 238 231 230 218 207 189 194 192 192 205 205 201 202 202 192 190 191 197 194 191 187 192 204 205 195 196 209 201
242 252 269 281 289 281 275 276 274 266 257 256 256 254 253 257 260 257 251 249 243 235 231 229 224 214 201 207 211 211 209 215 207 199 202 199 201 195 193 198 196 193 193 200 206 203 205 218 210
251 253 265 279 298 273 278 274 256 251 250 258 260 261 262 256 257 257 258 259 255 246 242 236 228 222 212 207 194 171 175 202 215 216 217 213 210 204 196 199 199 197 193 202 209 212 217 220 220
260 268 270 273 279 279 274 281 267 259 261 262 256 254 257 257 255 254 255 255 254 253 250 244 228 221 215 202 189 184 201 215 238 236 228 220 215 210 205 199 197 205 200 200 208 216 222 219 225
258 287 275 265 263 275 258 259 271 262 265 266 256 251 252 253 250 248 249 249 253 252 246 243 221 214 215 205 197 199 212 222 224 219 216 215 219 215 208 206 201 204 207 201 204 208 216 224 229
261 280 269 249 247 259 249 243 271 260 278 285 277 258 248 244 252 255 254 252 260 251 239 234 219 216 216 210 206 207 210 211 210 215 215 212 213 216 212 214 213 211 214 207 204 205 210 223 229
256 265 279 251 239 252 241 245 258 281 295 291 282 268 265 244 246 257 259 259 251 244 243 239 227 225 227 219 216 216 215 213 212 215 216 215 214 222 218 212 215 217 218 214 207 209 212 218 219
249 249 257 270 272 287 270 248 263 321 321 311 300 293 299 288 283 280 277 271 254 251 248 245 242 238 234 224 225 223 227 224 221 220 220 220 221 223 217 212 212 212 212 211 207 210 219 217 219
232 229 278 266 277 275 264 273 283 310 316 316 307 310 315 306 301 297 301 306 286 267 265 256 250 242 235 232 228 225 228 234 235 232 227 224 223 217 210 213 213 212 211 209 208 213 223 223 223
274 236 230 240 270 273 275 273 284 296 302 305 305 306 307 307 307 312 310 304 293 280 274 266 259 246 237 232 225 223 228 236 238 231 229 226 223 215 205 212 214 214 213 212 209 214 221 228 227
204 205 232 237 266 270 282 280 306 290 311 310 311 313 313 316 310 305 302 296 297 298 289 278 270 265 243 238 236 236 237 241 235 231 231 226 221 214 207 207 213 216 216 214 212 214 220 224 229
249 235 218 241 252 252 273 282 3 314 319 316 317 317 314 316 314 315 311 308 311 308 302 296 281 278 266 256 246 240 229 224 232 236 236 227 219 217 210 206 212 218 219 217 215 216 222 228 232
Height
1511 1512 1514 1516 1515 1510 1505 1502 1503 1505 1505 1508 1509 1509 1507 1506 1508 1513 1512 1510 1511 1513 1515 1516 1519 1521 1522 1523 1525 1526 1527 1528 1528 1529 1529 1530 1530 1531 1531 1532 1532 1532 1532 1533 1533 1533 1533 1532 1532
1511 1513 1515 1515 1509 1506 1503 1501 1503 1505 1507 1509 1510 1510 1508 1508 1510 1511 1510 1510 1511 1513 1515 1517 1519 1521 1522 1523 1525 1526 1527 1528 1529 1529 1530 1531 1531 1532 1532 1532 1533 1533 1533 1533 1533 1533 1533 1533 1533
1511 1512 1515 1511 1506 1501 1500 1503 1504 1507 1509 1510 1510 1510 1510 1510 1511 1510 1510 1510 1512 1513 1515 1517 1519 1521 1522 1523 1525 1526 1527 1528 1529 1530 1530 1531 1532 1532 1533 1533 1533 1533 1534 1534 1534 1534 1534 1534 1534
1512 1514 1514 1510 1504 1502 1502 1504 1506 1507 1509 1510 1509 1509 1511 1512 1511 1510 1509 1510 1512 1513 1515 1516 1518 1520 1522 1523 1525 1526 1527 1528 1529 1530 1531 1531 1532 1532 1533 1533 1534 1534 1534 1534 1534 1534 1534 1534 1534
1511 1512 1510 1506 1503 1502 1505 1507 1508 1506 1507 1509 1509 1508 1509 1510 1509 1509 1509 1511 1512 1514 1515 1517 1518 1520 1521 1523 1524 1526 1527 1528 1529 1530 1531 1531 1532 1533 1533 1534 1534 1534 1534 1534 1534 1534 1534 1534 1534
1512 1510 1506 1502 1501 1502 1505 1508 1508 1506 1507 1508 1509 1508 1509 1509 1508 1509 1510 1511 1512 1514 1515 1516 1518 1520 1521 1522 1524 1525 1527 1528 1529 1530 1531 1531 1532 1533 1533 1534 1534 1535 1535 1535 1535 1535 1535 1535 1534
1511 1508 1503 1501 1501 1502 1505 1508 1508 1506 1506 1508 1509 1508 1508 1509 1508 1509 1509 1511 1512 1514 1514 1516 1517 1519 1520 1522 1523 1525 1526 1527 1529 1529 1530 1531 1532 1533 1533 1534 1534 1534 1535 1535 1535 1535 1535 1535 1535
1510 1510 1505 1503 1502 1503 1507 1508 1508 1508 1507 1509 1510 1508 1508 1509 1508 1508 1509 1511 1512 1513 1514 1515 1517 1518 1520 1521 1523 1524 1525 1527 1528 1529 1530 1531 1531 1532 1533 1533 1534 1534 1534 1535 1535 1535 1535 1535 1535
1511 1511 1503 1502 1504 1504 1508 1507 1508 1508 1508 1508 1509 1509 1509 1507 1507 1508 1509 1510 1511 1513 1513 1515 1516 1517 1519 1520 1521 1523 1525 1526 1527 1528 1529 1530 1531 1532 1532 1533 1533 1534 1534 1534 1534 1535 1535 1534 1534
1510 1507 1504 1506 1507 1507 1508 1508 1508 1507 1506 1507 1507 1507 1507 1507 1507 1507 1508 1509 1510 1511 1512 1513 1515 1516 1517 1519 1520 1522 1523 1525 1526 1527 1528 1529 1529 1530 1531 1532 1533 1533 1534 1534 1534 1534 1534 1534 1533
1510 1507 1507 1509 1509 1509 1508 1508 1508 1507 1505 1506 1506 1506 1506 1506 1506 1506 1507 1508 1509 1509 1511 1512 1513 1514 1516 1517 1519 1520 1521 1523 1524 1526 1527 1528 1528 1529 1530 1530 1531 1532 1533 1533 1533 1533 1533 1533 1532
1511 1510 1510 1509 1509 1509 1509 1508 1508 1507 1507 1507 1506 1505 1505 1505 1505 1505 1505 1506 1507 1508 1509 1510 1511 1512 1514 1515 1517 1518 1519 1521 1522 1523 1525 1526 1526 1527 1528 1529 1530 1531 1531 1532 1532 1532 1532 1532 1531
1510 1509 1510 1510 1509 1509 1508 1507 1507 1506 1506 1505 1504 1504 1504 1503 1503 1504 1504 1505 1506 1506 1507 1508 1509 1510 1512 1513 1515 1516 1517 1519 1520 1521 1523 1524 1525 1525 1526 1527 1528 1529 1530 1530 1530 1530 1530 1530 1530
1510 1510 1510 1509 1508 1508 1507 1505 1505 1503 1504 1504 1503 1502 1502 1502 1502 1502 1502 1502 1503 1504 1505 1506 1507 1508 1510 1511 1512 1514 1515 1517 1518 1519 1520 1521 1522 1523 1524 1525 1526 1527 1528 1528 1528 1529 1529 1529 1528
1511 1510 1508 1508 1507 1506 1506 1501 1501 1501 1502 1501 1501 1500 1500 1500 1499 1499 1499 1500 1501 1501 1502 1504 1505 1506 1507 1509 1510 1512 1513 1514 1515 1516 1517 1519 1520 1521 1522 1523 1524 1524 1525 1526 1526 1527 1527 1526 1526
1509 1507 1504 1505 1505 1505 1507 1497 1498 1500 1499 1498 1498 1498 1497 1497 1497 1497 1497 1498 1499 1499 1500 1501 1502 1503 1505 1506 1508 1509 1510 1512 1513 1514 1515 1516 1517 1518 1519 1520 1521 1522 1523 1524 1524 1524 1524 1524 1524
1505 1502 1501 1502 1504 1503 1502 1496 1496 1498 1497 1496 1496 1495 1495 1494 1494 1494 1494 1495 1496 1496 1497 1498 1499 1500 1502 1503 1505 1506 1507 1509 1510 1511 1512 1513 1514 1516 1516 1517 1519 1519 1520 1521 1521 1521 1522 1522 1521
1501 1500 1500 1500 1501 1502 1499 1495 1494 1495 1495 1493 1492 1492 1492 1491 1491 1491 1492 1492 1493 1493 1494 1495 1496 1498 1499 1500 1502 1503 1504 1506 1507 1508 1510 1511 1512 1513 1514 1515 1516 1516 1517 1518 1519 1519 1519 1519 1519
1504 1502 1500 1499 1501 1501 1496 1492 1490 1491 1491 1490 1489 1488 1488 1488 1488 1489 1489 1489 1489 1490 1491 1492 1493 1494 1495 1497 1498 1499 1501 1502 1504 1505 1506 1508 1508 1509 1510 1511 1512 1513 1514 1515 1516 1516 1516 1516 1516
1505 1503 1500 1498 1500 1499 1493 1489 1486 1486 1486 1485 1485 1485 1485 1485 1485 1485 1485 1485 1486 1486 1488 1489 1490 1491 1492 1494 1495 1496 1497 1499 1500 1502 1503 1504 1505 1506 1507 1508 1509 1510 1511 1512 1512 1513 1512 1512 1512
1503 1501 1499 1499 1499 1497 1494 1482 1479 1479 1481 1481 1482 1482 1481 1481 1481 1480 1481 1481 1482 1483 1484 1485 1486 1488 1489 1490 1492 1493 1494 1495 1497 1498 1499 1500 1501 1502 1504 1505 1505 1506 1507 1508 1509 1509 1509 1509 1509
1501 1501 1501 1500 1498 1491 1492 1480 1471 1473 1475 1477 1478 1478 1478 1477 1477 1477 1477 1477 1478 1479 1480 1481 1483 1484 1485 1487 1488 1488 1489 1490 1492 1494 1495 1497 1498 1499 1500 1501 1502 1503 1503 1504 1505 1505 1506 1506 1505
1503 1503 1501 1499 1497 1495 1490 1488 1468 1471 1471 1471 1473 1474 1474 1474 1473 1473 1473 1474 1475 1476 1477 1478 1480 1481 1482 1483 1484 1485 1486 1487 1489 1490 1492 1493 1494 1495 1496 1497 1498 1499 1499 1500 1501 1501 1502 1502 1502
1505 1503 1500 1497 1495 1493 1484 1484 1468 1467 1469 1468 1469 1470 1470 1470 1470 1470 1470 1471 1471 1472 1473 1474 1476 1477 1478 1479 1480 1481 1482 1484 1485 1486 1488 1489 1490 1491 1492 1494 1494 1495 1496 1496 1497 1497 1497 1498 1498
1504 1500 1493 1488 1486 1479 1482 1481 1470 1468 1470 1469 1468 1467 1467 1467 1468 1468 1468 1468 1468 1468 1469 1470 1471 1472 1474 1475 1476 1477 1478 1480 1481 1482 1484 1484 1485 1487 1488 1489 1490 1491 1492 1492 1493 1493 1494 1494 1494
1503 1501 1496 1488 1478 1472 1480 1473 1465 1470 1470 1469 1468 1466 1465 1465 1465 1465 1465 1465 1464 1465 1465 1466 1467 1468 1470 1471 1472 1474 1475 1477 1477 1479 1480 1480 1482 1483 1484 1486 1486 1487 1488 1488 1489 1489 1490 1490 1490
1502 1500 1502 1497 1494 1488 1472 1470 1467 1468 1468 1467 1467 1465 1464 1464 1464 1463 1463 1462 1462 1463 1462 1463 1464 1465 1466 1467 1468 1470 1472 1473 1474 1475 1476 1477 1479 1480 1481 1482 1483 1483 1484 1484 1485 1485 1485 1486 1486
1504 1502 1501 1497 1488 1475 1465 1466 1463 1465 1467 1467 1466 1465 1465 1463 1462 1461 1461 1461 1460 1460 1460 1460 1461 1462 1463 1464 1464 1466 1468 1469 1470 1471 1472 1473 1475 1476 1477 1478 1479 1479 1479 1480 1481 1481 1482 1482 1481
1504 1504 1501 1496 1493 1481 1468 1462 1465 1466 1468 1468 1466 1466 1464 1462 1461 1460 1459 1459 1458 1457 1457 1457 1458 1459 1459 1460 1461 1462 1464 1465 1466 1467 1468 1469 1471 1472 1472 1473 1475 1475 1475 1476 1476 1477 1478 1478 1477
1502 1500 1499 1494 1492 1490 1478 1469 1470 1469 1469 1469 1467 1466 1464 1462 1460 1458 1457 1456 1455 1455 1455 1455 1455 1455 1456 1457 1458 1459 1460 1461 1462 1463 1464 1465 1466 1467 1468 1469 1470 1471 1471 1472 1473 1473 1473 1473 1473